Hourly Data Report for November 10, 2019

All times are specified in Local Standard Time (LST). Add 1 hour to adjust for Daylight Saving Time where and when it is observed.

SATURNA ISLAND CS
BRITISH COLUMBIA
Current Station Operator: ECCC - MSC

48°47'02.067" N
123°02'41.082" W
24.40 m
1017101
71473
WEZ

Download Data

Hourly Data (November 2019)
Hourly Data Report for November 10, 2019
TIME Temp Definition
°C
Dew Point Definition
°C
Rel Hum Definition
%
Wind Dir Definition
10's deg

Wind Spd Definition
km/h
Visibility Definition
km
Stn Press Definition
kPa
Hmdx Definition


Wind Chill Definition


Weather Definition


00:00 9.6 9.3 98 2 5   102.07     LegendNANA
01:00 9.6 9.3 98 3 2   102.10     LegendNANA
02:00 9.6 9.3 98 2 3   102.11     LegendNANA
03:00 9.6 9.4 98 34 4   102.09     LegendNANA
04:00 9.7 9.4 98 34 2   102.10     LegendNANA
05:00 9.6 9.3 98 0 1   102.18     LegendNANA
06:00 9.6 9.3 98 28 2   102.18     LegendNANA
07:00 9.5 9.2 98 30 2   102.17     LegendNANA
08:00 9.4 9.2 98 32 5   102.25     LegendNANA
09:00 9.5 9.3 98 32 4   102.32     LegendNANA
10:00 10.3 10.0 98 32 3   102.36     LegendNANA
11:00 9.8 9.4 97 33 5   102.40     LegendNANA
12:00 9.7 9.3 97 32 4   102.43     LegendNANA
13:00 9.7 9.2 97 29 3   102.40     LegendNANA
14:00 9.8 9.1 96 31 4   102.40     LegendNANA
15:00 9.9 9.0 94 28 4   102.36     LegendNANA
16:00 9.4 8.7 95 24 3   102.41     LegendNANA
17:00 9.1 8.5 96 31 2   102.44     LegendNANA
18:00 9.1 8.5 96 32 6   102.43     LegendNANA
19:00 9.1 8.5 96 31 6   102.46     LegendNANA
20:00 9.2 8.6 96 31 6   102.40     LegendNANA
21:00 9.2 8.6 96 30 5   102.42     LegendNANA
22:00 9.1 8.5 96 31 5   102.45     LegendNANA
23:00 9.0 8.4 96 31 5   102.44     LegendNANA

Notes on Data Quality.

Legend

  • E = Estimated
  • M = Missing
  • NA = Not Available
Date modified: